Location: Dötzum
(52.0808°N, 9.8063°E)
Time: 04:54:40
(UTC+00:00)

Cosmos 614 Rocket - Pass Details

Date: 27 May 2022
Orbit: 732 x 764 km, 74.1° (Epoch: 24 June)

Event Time Altitude Azimuth Distance (km) Brightness Sun altitude
Rises 01:10:45 0° 334° (NNW) 3,216 7.8 -12.6°
Reaches altitude 10° 01:13:07 10° 334° (NNW) 2,292 7.0 -12.5°
Maximum altitude 01:18:20 85° 248° (WSW) 770 4.0 -12.1°
Drops below altitude 10° 01:23:33 10° 159° (SSE) 2,291 6.1 -11.7°
Enters shadow 01:25:36 - 159° (SSE) 3,094 6.8 -11.5°
